Regional Weather Roundup
Issued by NWS Cleveland, OH

Home | Current Version | Previous Version | Graphics & Text | Print | Product List | Glossary On
Versions: 1 2 3 4 5 6 7 8 9 10 11 12 13 14 15 16 17 18 19 20 21 22 23 24 25 26 27 28 29 30 31 32 33 34 35 36 37 38 39 40 41 42 43 44 45 46 47 48 49 50
000
ASUS41 KCLE 172100
RWRCLE
OHIO REGIONAL WEATHER ROUNDUP
NATIONAL WEATHER SERVICE WILMINGTON, OH
500 PM EDT WED SEP 17 2014

NOTE: "FAIR" INDICATES FEW OR NO CLOUDS BELOW 12,000 FEET WITH NO
SIGNIFICANT WEATHER AND/OR OBSTRUCTIONS TO VISIBILITY.

OHZ001>008-015>018-024>027-034-035-043-044-172200-
   NORTHWEST OHIO

CITY           SKY/WX    TMP DP  RH WIND       PRES   REMARKS
DEFIANCE       MOSUNNY   67  45  45 VRB5      29.99F
FINDLAY        SUNNY     69  44  40 VRB3      29.98F
TOLEDO EXPRESS MOSUNNY   68  44  42 SW12      29.98F
TOLEDO METCALF SUNNY     68  44  42 W13       29.99F
LIMA           SUNNY     68  47  46 W6        29.99F
$$

OHZ009>014-019>023-028>033-038-089-172200-
   NORTHEAST OHIO

CITY           SKY/WX    TMP DP  RH WIND       PRES   REMARKS
CLE-HOPKINS    MOSUNNY   65  50  58 N6        30.01S
CLE-LAKEFRONT  SUNNY     65  49  56 NW9       29.98F
CUY CO. ARPT   MOSUNNY   66  52  59 NW9       30.00F
LORAIN-ELYRIA  PTSUNNY   69  50  50 NE5       30.00S
ASHTABULA      MOSUNNY   64  48  56 N6        30.00S
AKRON-CANTON   MOSUNNY   66  43  43 W6        30.00S
WOOSTER        NOT AVBL
MANSFIELD      MOSUNNY   67  44  43 VRB6      30.00F
YOUNGSTOWN     PTSUNNY   65  45  48 W6        29.99F
$$

OHZ042-051>053-060>062-070>072-077>081-172200-
  SOUTHWEST OHIO

CITY           SKY/WX    TMP DP  RH WIND       PRES   REMARKS
CINC-COVINGTON PTSUNNY   65  48  54 W7        30.01S
CINC-LUNKEN    MOSUNNY   68  49  50 VRB3      30.01S
HAMILTON       MOSUNNY   67  50  54 VRB7      30.02S
DAYTON         NOT AVBL
WRIGHT-PAT AFB MOSUNNY   65  48  54 VRB2      30.00F
DAYTON GENERAL PTSUNNY   66  48  52 W3        30.01S
WILMINGTON     MOSUNNY   67  48  50 CALM      30.00F
$$

OHZ036-037-039>041-045>050-054>059-063>069-073>076-082>088-172200-
  CENTRAL AND SOUTHEAST OHIO

CITY           SKY/WX    TMP DP  RH WIND       PRES   REMARKS
COLUMBUS       PTSUNNY   72  45  37 W6        29.99S
OSU AIRPORT    MOSUNNY   68  44  42 CALM      29.99F
BOLTON FIELD   MOSUNNY   66  48  52 CALM      30.00F
RICKENBACK AFB NOT AVBL
NEWARK         PTSUNNY   69  48  47 W6        29.98F
MARION         SUNNY     68  45  43 W7        30.00F
LANCASTER      MOSUNNY   71  49  45 NW7       29.99F
ZANESVILLE     PTSUNNY   70  49  47 N6        29.98F
NEW PHILLY     MOSUNNY   68  49  50 CALM      29.99F
$$


USA.gov is the U.S. government's official web portal to all federal, state and local government web resources and services.